When you browse on this site, cookies collect data to enhance your experience and personalize the content and advertising you see.
Visit our Privacy Policy to learn more. By continuing to use the site, you agree to this use of cookies and data.
  • In Netherlands
  • List of Countries
  • For 7 days
  • Water Temperature
  • Satellite Maps
  • Weather Map
  • Weather Widgets
  • user-avatar
    Login

    Hourly Weather Jalalabad

    Today, 19 May, Sunday

    Time Temperature Precipitation Wind Pressure Humidity
    00:00 +27°C° 0 mm 1 mps 709 mmHg 35%
    01:00 +27°C° 0 mm 1 mps 709 mmHg 37%
    02:00 +26°C° 0 mm 1 mps 708 mmHg 38%
    03:00 +25°C° 0 mm 1 mps 708 mmHg 38%
    04:00 +25°C° 0 mm 1 mps 708 mmHg 39%
    05:00 +23°C° 0 mm 0 mps 708 mmHg 41%
    06:00 +26°C° 0 mm 1 mps 708 mmHg 36%
    07:00 +27°C° 0 mm 1 mps 708 mmHg 32%
    08:00 +28°C° 0 mm 1 mps 709 mmHg 28%
    09:00 +30°C° 0 mm 1 mps 709 mmHg 25%
    10:00 +31°C° 0 mm 1 mps 709 mmHg 23%
    11:00 +32°C° 0 mm 2 mps 709 mmHg 21%
    12:00 +32°C° 0 mm 2 mps 709 mmHg 20%
    13:00 +34°C° 0 mm 2 mps 709 mmHg 19%
    14:00 +35°C° 0 mm 3 mps 709 mmHg 19%
    15:00 +34°C° 0 mm 3 mps 709 mmHg 20%
    16:00 +34°C° 0 mm 3 mps 709 mmHg 20%
    17:00 +34°C° 0 mm 3 mps 708 mmHg 21%
    18:00 +32°C° 0 mm 2 mps 709 mmHg 24%
    19:00 +31°C° 0 mm 2 mps 709 mmHg 27%
    20:00 +30°C° 0 mm 1 mps 710 mmHg 30%
    21:00 +30°C° 0 mm 1 mps 710 mmHg 31%
    22:00 +29°C° 0 mm 1 mps 710 mmHg 32%
    23:00 +29°C° 0 mm 2 mps 711 mmHg 33%

    Tomorrow, 20 May, Monday

    Time Temperature Precipitation Wind Pressure Humidity
    00:00 +28°C° 0 mm 2 mps 711 mmHg 34%
    01:00 +27°C° 0 mm 2 mps 710 mmHg 35%
    02:00 +26°C° 0 mm 1 mps 710 mmHg 35%
    03:00 +26°C° 0 mm 1 mps 710 mmHg 37%
    04:00 +23°C° 0 mm 0 mps 710 mmHg 39%
    05:00 +22°C° 0 mm 0 mps 710 mmHg 41%
    06:00 +26°C° 0 mm 1 mps 710 mmHg 36%
    07:00 +27°C° 0 mm 1 mps 711 mmHg 31%
    08:00 +29°C° 0 mm 2 mps 711 mmHg 26%
    09:00 +30°C° 0 mm 2 mps 711 mmHg 24%
    10:00 +31°C° 0 mm 2 mps 711 mmHg 22%
    11:00 +32°C° 0 mm 2 mps 711 mmHg 20%
    12:00 +34°C° 0 mm 2 mps 711 mmHg 19%
    13:00 +35°C° 0 mm 2 mps 710 mmHg 18%
    14:00 +35°C° 0 mm 2 mps 710 mmHg 18%
    15:00 +35°C° 0 mm 2 mps 710 mmHg 18%
    16:00 +35°C° 0 mm 2 mps 709 mmHg 18%
    17:00 +35°C° 0 mm 2 mps 709 mmHg 19%
    18:00 +34°C° 0 mm 2 mps 709 mmHg 21%
    19:00 +32°C° 0 mm 2 mps 710 mmHg 24%
    20:00 +31°C° 0 mm 1 mps 710 mmHg 26%
    21:00 +30°C° 0 mm 1 mps 710 mmHg 28%
    22:00 +30°C° 0 mm 1 mps 710 mmHg 30%
    23:00 +29°C° 0 mm 1 mps 710 mmHg 31%

    Day after tomorrow, 21 May, Tuesday

    Time Temperature Precipitation Wind Pressure Humidity
    00:00 +28°C° 0 mm 1 mps 710 mmHg 31%
    01:00 +28°C° 0 mm 1 mps 710 mmHg 31%
    02:00 +27°C° 0 mm 1 mps 710 mmHg 32%
    03:00 +27°C° 0 mm 1 mps 709 mmHg 31%
    04:00 +26°C° 0 mm 1 mps 709 mmHg 31%
    05:00 +26°C° 0 mm 1 mps 709 mmHg 30%
    06:00 +27°C° 0 mm 1 mps 709 mmHg 27%
    07:00 +29°C° 0 mm 2 mps 710 mmHg 23%
    08:00 +30°C° 0 mm 2 mps 710 mmHg 20%
    09:00 +31°C° 0 mm 2 mps 710 mmHg 18%
    10:00 +34°C° 0 mm 2 mps 710 mmHg 17%
    11:00 +35°C° 0 mm 2 mps 710 mmHg 15%
    12:00 +36°C° 0 mm 2 mps 710 mmHg 15%
    13:00 +36°C° 0 mm 2 mps 709 mmHg 14%
    14:00 +37°C° 0 mm 2 mps 709 mmHg 14%
    15:00 +37°C° 0 mm 2 mps 708 mmHg 14%
    16:00 +37°C° 0 mm 2 mps 708 mmHg 15%
    17:00 +37°C° 0 mm 2 mps 708 mmHg 16%
    18:00 +36°C° 0 mm 2 mps 708 mmHg 18%
    19:00 +34°C° 0 mm 1 mps 708 mmHg 21%
    20:00 +33°C° 0 mm 1 mps 709 mmHg 23%
    21:00 +32°C° 0 mm 1 mps 709 mmHg 24%
    22:00 +32°C° 0 mm 1 mps 709 mmHg 25%
    23:00 +31°C° 0 mm 1 mps 709 mmHg 26%

    22 May, Wednesday

    Time Temperature Precipitation Wind Pressure Humidity
    00:00 +30°C° 0 mm 1 mps 709 mmHg 25%
    01:00 +30°C° 0 mm 1 mps 709 mmHg 25%
    02:00 +29°C° 0 mm 2 mps 708 mmHg 25%
    03:00 +29°C° 0 mm 2 mps 708 mmHg 26%
    04:00 +28°C° 0 mm 2 mps 708 mmHg 26%
    05:00 +28°C° 0 mm 2 mps 708 mmHg 27%
    06:00 +29°C° 0 mm 3 mps 708 mmHg 26%
    07:00 +29°C° 0 mm 3 mps 708 mmHg 25%
    08:00 +30°C° 0 mm 4 mps 709 mmHg 24%
    09:00 +32°C° 0 mm 4 mps 709 mmHg 22%
    10:00 +33°C° 0 mm 4 mps 709 mmHg 21%
    11:00 +34°C° 0 mm 3 mps 709 mmHg 19%
    12:00 +34°C° 0 mm 3 mps 708 mmHg 19%
    13:00 +34°C° 0 mm 3 mps 708 mmHg 20%
    14:00 +35°C° 0 mm 2 mps 708 mmHg 20%
    15:00 +34°C° 0 mm 2 mps 708 mmHg 21%
    16:00 +34°C° 0 mm 2 mps 707 mmHg 22%
    17:00 +32°C° 0 mm 2 mps 707 mmHg 23%
    18:00 +32°C° 0 mm 2 mps 707 mmHg 24%
    19:00 +31°C° 0 mm 2 mps 708 mmHg 25%
    20:00 +30°C° 0 mm 2 mps 708 mmHg 27%
    21:00 +29°C° 0 mm 2 mps 708 mmHg 28%
    22:00 +29°C° 0 mm 1 mps 708 mmHg 29%
    23:00 +28°C° 0 mm 1 mps 708 mmHg 30%

    23 May, Thursday

    Time Temperature Precipitation Wind Pressure Humidity
    00:00 +28°C° 0 mm 1 mps 708 mmHg 30%
    01:00 +28°C° 0 mm 1 mps 707 mmHg 31%
    02:00 +28°C° 0 mm 2 mps 707 mmHg 31%
    03:00 +27°C° 0 mm 1 mps 707 mmHg 33%
    04:00 +27°C° 0 mm 1 mps 706 mmHg 35%
    05:00 +26°C° 0 mm 1 mps 706 mmHg 37%
    06:00 +27°C° 0 mm 1 mps 707 mmHg 35%
    07:00 +28°C° 0 mm 1 mps 707 mmHg 34%
    08:00 +28°C° 0 mm 1 mps 707 mmHg 32%
    09:00 +28°C° 0.1 mm 1 mps 707 mmHg 33%
    10:00 +28°C° 0.1 mm 2 mps 707 mmHg 34%
    11:00 +28°C° 0.1 mm 2 mps 707 mmHg 35%
    12:00 +28°C° 0 mm 2 mps 707 mmHg 34%
    13:00 +29°C° 0 mm 2 mps 707 mmHg 33%
    14:00 +30°C° 0 mm 2 mps 707 mmHg 31%
    15:00 +30°C° 0 mm 2 mps 707 mmHg 31%
    16:00 +31°C° 0 mm 2 mps 707 mmHg 31%
    17:00 +31°C° 0 mm 2 mps 707 mmHg 31%
    18:00 +29°C° 0.6 mm 3 mps 707 mmHg 36%
    19:00 +28°C° 0.6 mm 3 mps 707 mmHg 41%
    20:00 +27°C° 0.6 mm 3 mps 708 mmHg 47%
    21:00 +26°C° 0.5 mm 3 mps 708 mmHg 50%
    22:00 +26°C° 0.5 mm 2 mps 708 mmHg 53%
    23:00 +25°C° 0.5 mm 1 mps 708 mmHg 56%

    24 May, Friday

    Time Temperature Precipitation Wind Pressure Humidity
    00:00 +25°C° 0 mm 1 mps 708 mmHg 56%
    01:00 +25°C° 0 mm 1 mps 707 mmHg 57%
    02:00 +23°C° 0 mm 0 mps 707 mmHg 57%
    03:00 +23°C° 0 mm 0 mps 707 mmHg 58%
    04:00 +22°C° 0 mm 0 mps 707 mmHg 59%
    05:00 +22°C° 0 mm 0 mps 707 mmHg 59%
    06:00 +23°C° 0 mm 0 mps 707 mmHg 55%
    07:00 +24°C° 0 mm 0 mps 707 mmHg 52%
    08:00 +27°C° 0 mm 1 mps 708 mmHg 48%
    09:00 +28°C° 0 mm 1 mps 708 mmHg 44%
    10:00 +29°C° 0 mm 1 mps 708 mmHg 41%
    11:00 +30°C° 0 mm 2 mps 708 mmHg 37%
    12:00 +31°C° 0 mm 2 mps 707 mmHg 35%
    13:00 +32°C° 0 mm 2 mps 707 mmHg 32%
    14:00 +33°C° 0 mm 3 mps 706 mmHg 29%
    15:00 +34°C° 0 mm 3 mps 706 mmHg 29%
    16:00 +34°C° 0 mm 3 mps 706 mmHg 28%
    17:00 +35°C° 0 mm 3 mps 706 mmHg 27%
    18:00 +33°C° 0.3 mm 4 mps 706 mmHg 31%
    19:00 +32°C° 0.3 mm 5 mps 707 mmHg 35%
    20:00 +30°C° 0.3 mm 6 mps 707 mmHg 40%
    21:00 +29°C° 0.7 mm 4 mps 707 mmHg 43%
    22:00 +28°C° 0.7 mm 3 mps 708 mmHg 47%
    23:00 +27°C° 0.7 mm 1 mps 708 mmHg 50%
    Show more